TimeMST,TemperatureF,Dew PointF,Humidity,Sea Level PressureIn,VisibilityMPH,Wind Direction,Wind SpeedMPH,Gust SpeedMPH,PrecipitationIn,Events,Conditions,WindDirDegrees,DateUTC
12:38 AM,62.6,32.0,32,29.88,4.0,NW,4.6,-,N/A,,Haze,310,2012-11-02 07:38:00
12:58 AM,62.1,31.6,32,29.86,4.0,WNW,3.5,-,N/A,,Haze,300,2012-11-02 07:58:00
1:08 AM,60.8,32.0,34,29.88,5.0,NNW,4.6,-,N/A,,Haze,330,2012-11-02 08:08:00
1:18 AM,60.8,32.0,34,29.89,4.0,NW,2.3,-,N/A,,Haze,320,2012-11-02 08:18:00
1:48 AM,60.8,32.0,34,29.88,6.0,North,4.6,-,N/A,,Haze,360,2012-11-02 08:48:00
1:58 AM,59.9,31.6,34,29.86,6.0,North,5.8,-,N/A,,Haze,350,2012-11-02 08:58:00
2:58 AM,58.8,29.7,33,29.86,6.0,North,3.5,-,N/A,,Haze,10,2012-11-02 09:58:00
3:58 AM,59.2,35.6,41,29.86,5.0,North,4.6,-,N/A,,Haze,10,2012-11-02 10:58:00
4:58 AM,57.2,32.0,38,29.87,4.0,WNW,3.5,-,N/A,,Haze,300,2012-11-02 11:58:00
5:18 AM,59.0,33.8,39,29.89,5.0,NE,2.3,-,N/A,,Haze,40,2012-11-02 12:18:00
5:58 AM,55.9,34.9,45,29.88,4.0,NW,5.8,-,N/A,,Haze,320,2012-11-02 12:58:00
6:18 AM,57.2,32.0,38,29.90,5.0,North,6.9,-,N/A,,Haze,350,2012-11-02 13:18:00
6:58 AM,56.5,34.3,43,29.89,4.0,NNW,8.1,-,N/A,,Haze,340,2012-11-02 13:58:00
7:18 AM,57.2,33.8,41,29.93,4.0,NNE,1.2,-,N/A,,Haze,20,2012-11-02 14:18:00
7:23 AM,57.2,33.8,41,29.92,7.0,NNW,5.8,-,N/A,,Clear,330,2012-11-02 14:23:00
7:28 AM,57.2,33.8,41,29.93,4.0,North,2.3,-,N/A,,Haze,10,2012-11-02 14:28:00
7:38 AM,57.2,32.0,38,29.93,4.0,NNW,2.3,-,N/A,,Haze,330,2012-11-02 14:38:00
7:58 AM,58.1,33.4,39,29.91,10.0,North,3.5,-,N/A,,Clear,10,2012-11-02 14:58:00
8:58 AM,63.7,34.9,34,29.93,10.0,NNE,3.5,-,N/A,,Clear,30,2012-11-02 15:58:00
9:18 AM,68.0,32.0,26,29.95,4.0,North,5.8,-,N/A,,Haze,10,2012-11-02 16:18:00
9:23 AM,68.0,32.0,26,29.95,5.0,North,5.8,-,N/A,,Light Drizzle,10,2012-11-02 16:23:00
9:28 AM,68.0,33.8,28,29.95,7.0,North,5.8,-,N/A,,Mostly Cloudy,10,2012-11-02 16:28:00
9:30 AM,69.8,32.0,25,29.95,5.0,North,5.8,-,N/A,,Light Drizzle,10,2012-11-02 16:30:00
9:47 AM,69.8,32.0,25,29.96,7.0,NNE,4.6,-,N/A,,Clear,30,2012-11-02 16:47:00
9:48 AM,69.8,32.0,25,29.96,5.0,NNE,4.6,-,N/A,,Light Drizzle,30,2012-11-02 16:48:00
9:57 AM,71.6,32.0,23,29.94,7.0,ENE,4.6,-,N/A,,Clear,60,2012-11-02 16:57:00
9:58 AM,71.6,32.0,23,29.96,5.0,ENE,5.8,-,N/A,,Light Drizzle,70,2012-11-02 16:58:00
10:05 AM,71.6,32.0,23,29.95,7.0,East,4.6,-,N/A,,Clear,80,2012-11-02 17:05:00
10:20 AM,71.6,32.0,23,29.96,4.0,ENE,3.5,-,N/A,,Light Drizzle,60,2012-11-02 17:20:00
10:32 AM,73.4,32.0,22,29.96,10.0,East,5.8,-,N/A,,Clear,100,2012-11-02 17:32:00
10:58 AM,74.8,33.4,22,29.93,10.0,East,2.3,-,N/A,,Clear,80,2012-11-02 17:58:00
11:58 AM,78.4,34.7,21,29.91,10.0,NNE,4.6,-,N/A,,Clear,30,2012-11-02 18:58:00
12:58 PM,82.0,34.0,18,29.86,10.0,East,3.5,-,N/A,,Clear,80,2012-11-02 19:58:00
1:58 PM,84.7,31.1,14,29.85,10.0,NNW,1.2,-,N/A,,Clear,340,2012-11-02 20:58:00
2:58 PM,85.8,30.2,13,29.83,10.0,Variable,2.3,-,N/A,,Clear,0,2012-11-02 21:58:00
3:58 PM,85.5,32.7,15,29.81,10.0,West,3.5,-,N/A,,Clear,280,2012-11-02 22:58:00
4:58 PM,84.6,32.5,15,29.82,10.0,WSW,2.3,-,N/A,,Clear,250,2012-11-02 23:58:00
5:58 PM,79.2,36.5,22,29.83,10.0,West,4.6,-,N/A,,Clear,260,2012-11-03 00:58:00
6:58 PM,75.2,37.4,25,29.84,10.0,WNW,2.3,-,N/A,,Clear,290,2012-11-03 01:58:00
7:58 PM,71.1,37.9,30,29.86,10.0,West,3.5,-,N/A,,Clear,270,2012-11-03 02:58:00
8:58 PM,66.6,41.4,40,29.86,10.0,NNW,5.8,-,N/A,,Clear,340,2012-11-03 03:58:00
9:58 PM,65.7,36.9,35,29.87,10.0,NNW,6.9,-,N/A,,Clear,340,2012-11-03 04:58:00
10:58 PM,66.2,35.1,32,29.88,10.0,North,8.1,-,N/A,,Clear,360,2012-11-03 05:58:00
11:58 PM,66.6,33.6,29,29.90,10.0,East,1.2,-,N/A,,Clear,100,2012-11-03 06:58:00